When you browse on this site, cookies collect data to enhance your experience and personalize the content and advertising you see.
Visit our Privacy Policy to learn more. By continuing to use the site, you agree to this use of cookies and data.
  • Em Portugal
  • Lista de países
  • Para 7 dias
  • Temperatura da água
  • Mapa do tempo
  • Widgets de tempo
  • user-avatar
    Iniciar Sessão

    Previsão horária em Oleiros

    Hoje, 20 Agosto, Terça-feira

    Tempo Temperatura Precipitação Vento Pressão Humidade
    00:00 +13°C° 0 mm 3 m/s 760 mmHg 92%
    01:00 +13°C° 0 mm 3 m/s 760 mmHg 92%
    02:00 +13°C° 0 mm 3 m/s 760 mmHg 93%
    03:00 +13°C° 0 mm 3 m/s 760 mmHg 93%
    04:00 +13°C° 0 mm 3 m/s 760 mmHg 94%
    05:00 +13°C° 0 mm 3 m/s 760 mmHg 94%
    06:00 +15°C° 0 mm 4 m/s 760 mmHg 85%
    07:00 +18°C° 0 mm 4 m/s 760 mmHg 76%
    08:00 +20°C° 0 mm 4 m/s 761 mmHg 67%
    09:00 +21°C° 0 mm 5 m/s 760 mmHg 61%
    10:00 +23°C° 0 mm 5 m/s 760 mmHg 56%
    11:00 +25°C° 0 mm 5 m/s 760 mmHg 51%
    12:00 +24°C° 0 mm 6 m/s 760 mmHg 50%
    13:00 +26°C° 0 mm 6 m/s 760 mmHg 49%
    14:00 +26°C° 0 mm 6 m/s 759 mmHg 49%
    15:00 +24°C° 0 mm 6 m/s 759 mmHg 54%
    16:00 +23°C° 0 mm 6 m/s 759 mmHg 59%
    17:00 +22°C° 0 mm 6 m/s 759 mmHg 65%
    18:00 +20°C° 0 mm 5 m/s 759 mmHg 72%
    19:00 +17°C° 0 mm 5 m/s 759 mmHg 80%
    20:00 +16°C° 0 mm 5 m/s 759 mmHg 88%
    21:00 +15°C° 0 mm 4 m/s 759 mmHg 90%
    22:00 +15°C° 0 mm 4 m/s 759 mmHg 91%
    23:00 +16°C° 0 mm 3 m/s 759 mmHg 93%

    Amanhã, 21 Agosto, Quarta-feira

    Tempo Temperatura Precipitação Vento Pressão Humidade
    00:00 +16°C° 0 mm 3 m/s 759 mmHg 94%
    01:00 +14°C° 0 mm 3 m/s 758 mmHg 95%
    02:00 +14°C° 0 mm 3 m/s 758 mmHg 96%
    03:00 +14°C° 0 mm 3 m/s 758 mmHg 96%
    04:00 +14°C° 0 mm 3 m/s 758 mmHg 96%
    05:00 +14°C° 0 mm 3 m/s 758 mmHg 97%
    06:00 +17°C° 0 mm 3 m/s 758 mmHg 87%
    07:00 +19°C° 0 mm 4 m/s 758 mmHg 78%
    08:00 +21°C° 0 mm 4 m/s 758 mmHg 68%
    09:00 +23°C° 0 mm 4 m/s 758 mmHg 63%
    10:00 +26°C° 0 mm 5 m/s 758 mmHg 58%
    11:00 +27°C° 0 mm 5 m/s 758 mmHg 53%
    12:00 +28°C° 0 mm 5 m/s 758 mmHg 53%
    13:00 +28°C° 0 mm 6 m/s 758 mmHg 54%
    14:00 +28°C° 0 mm 6 m/s 758 mmHg 54%
    15:00 +26°C° 0 mm 6 m/s 758 mmHg 60%
    16:00 +24°C° 0 mm 6 m/s 758 mmHg 66%
    17:00 +23°C° 0 mm 5 m/s 758 mmHg 71%
    18:00 +21°C° 0 mm 5 m/s 758 mmHg 79%
    19:00 +19°C° 0 mm 4 m/s 759 mmHg 87%
    20:00 +17°C° 0 mm 4 m/s 759 mmHg 94%
    21:00 +17°C° 0 mm 4 m/s 759 mmHg 95%
    22:00 +15°C° 0 mm 4 m/s 759 mmHg 96%
    23:00 +16°C° 0 mm 3 m/s 759 mmHg 96%

    Depois de amanhã, 22 Agosto, Quinta-feira

    Tempo Temperatura Precipitação Vento Pressão Humidade
    00:00 +15°C° 0 mm 4 m/s 759 mmHg 96%
    01:00 +15°C° 0 mm 4 m/s 759 mmHg 97%
    02:00 +15°C° 0 mm 4 m/s 759 mmHg 97%
    03:00 +15°C° 0 mm 4 m/s 758 mmHg 97%
    04:00 +15°C° 0 mm 4 m/s 758 mmHg 97%
    05:00 +15°C° 0 mm 4 m/s 758 mmHg 97%
    06:00 +18°C° 0 mm 4 m/s 758 mmHg 86%
    07:00 +20°C° 0 mm 4 m/s 759 mmHg 76%
    08:00 +22°C° 0 mm 3 m/s 759 mmHg 66%
    09:00 +26°C° 0 mm 4 m/s 758 mmHg 58%
    10:00 +28°C° 0 mm 4 m/s 758 mmHg 50%
    11:00 +32°C° 0 mm 4 m/s 758 mmHg 42%
    12:00 +33°C° 0 mm 4 m/s 757 mmHg 41%
    13:00 +33°C° 0 mm 5 m/s 757 mmHg 40%
    14:00 +34°C° 0 mm 5 m/s 757 mmHg 39%
    15:00 +32°C° 0 mm 4 m/s 756 mmHg 45%
    16:00 +29°C° 0 mm 4 m/s 756 mmHg 52%
    17:00 +28°C° 0 mm 4 m/s 756 mmHg 58%
    18:00 +26°C° 0 mm 4 m/s 756 mmHg 64%
    19:00 +23°C° 0 mm 4 m/s 757 mmHg 70%
    20:00 +21°C° 0 mm 3 m/s 757 mmHg 76%
    21:00 +21°C° 0 mm 3 m/s 757 mmHg 75%
    22:00 +20°C° 0 mm 3 m/s 756 mmHg 75%
    23:00 +20°C° 0 mm 3 m/s 756 mmHg 75%

    23 Agosto, Sexta-feira

    Tempo Temperatura Precipitação Vento Pressão Humidade
    00:00 +20°C° 0 mm 3 m/s 756 mmHg 76%
    01:00 +19°C° 0 mm 2 m/s 755 mmHg 77%
    02:00 +19°C° 0 mm 2 m/s 755 mmHg 78%
    03:00 +19°C° 0 mm 2 m/s 755 mmHg 77%
    04:00 +20°C° 0 mm 2 m/s 755 mmHg 76%
    05:00 +20°C° 0 mm 2 m/s 755 mmHg 74%
    06:00 +24°C° 0 mm 2 m/s 755 mmHg 63%
    07:00 +27°C° 0 mm 2 m/s 755 mmHg 51%
    08:00 +30°C° 0 mm 1 m/s 755 mmHg 40%
    09:00 +32°C° 0 mm 2 m/s 755 mmHg 35%
    10:00 +35°C° 0 mm 2 m/s 754 mmHg 30%
    11:00 +37°C° 0 mm 2 m/s 754 mmHg 25%
    12:00 +36°C° 0 mm 2 m/s 754 mmHg 29%
    13:00 +35°C° 0 mm 2 m/s 754 mmHg 32%
    14:00 +34°C° 0 mm 2 m/s 753 mmHg 35%
    15:00 +32°C° 0 mm 2 m/s 754 mmHg 40%
    16:00 +30°C° 0 mm 1 m/s 754 mmHg 45%
    17:00 +29°C° 0 mm 1 m/s 754 mmHg 49%
    18:00 +27°C° 0 mm 1 m/s 754 mmHg 55%
    19:00 +25°C° 0 mm 1 m/s 754 mmHg 60%
    20:00 +23°C° 0 mm 1 m/s 755 mmHg 65%
    21:00 +23°C° 0 mm 1 m/s 755 mmHg 65%
    22:00 +23°C° 0 mm 1 m/s 754 mmHg 65%
    23:00 +22°C° 0 mm 1 m/s 754 mmHg 65%

    24 Agosto, Sábado

    Tempo Temperatura Precipitação Vento Pressão Humidade
    00:00 +22°C° 0 mm 1 m/s 754 mmHg 65%
    01:00 +21°C° 0 mm 1 m/s 754 mmHg 65%
    02:00 +21°C° 0 mm 1 m/s 754 mmHg 65%
    03:00 +20°C° 0 mm 1 m/s 754 mmHg 67%
    04:00 +20°C° 0 mm 1 m/s 754 mmHg 69%
    05:00 +19°C° 0 mm 1 m/s 754 mmHg 71%
    06:00 +22°C° 0 mm 1 m/s 754 mmHg 63%
    07:00 +24°C° 0 mm 2 m/s 754 mmHg 55%
    08:00 +27°C° 0 mm 2 m/s 755 mmHg 47%
    09:00 +28°C° 0 mm 2 m/s 755 mmHg 46%
    10:00 +29°C° 0 mm 3 m/s 755 mmHg 44%
    11:00 +30°C° 0 mm 3 m/s 754 mmHg 42%
    12:00 +29°C° 0 mm 3 m/s 754 mmHg 48%
    13:00 +28°C° 0 mm 3 m/s 754 mmHg 54%
    14:00 +27°C° 0 mm 3 m/s 754 mmHg 61%
    15:00 +26°C° 0 mm 3 m/s 754 mmHg 68%
    16:00 +24°C° 0 mm 3 m/s 755 mmHg 75%
    17:00 +21°C° 0 mm 3 m/s 755 mmHg 82%
    18:00 +20°C° 0 mm 2 m/s 755 mmHg 85%
    19:00 +20°C° 0 mm 2 m/s 756 mmHg 88%
    20:00 +19°C° 0 mm 2 m/s 756 mmHg 91%
    21:00 +19°C° 0 mm 2 m/s 756 mmHg 92%
    22:00 +18°C° 0 mm 2 m/s 756 mmHg 93%
    23:00 +18°C° 0 mm 2 m/s 756 mmHg 93%

    25 Agosto, Domingo

    Tempo Temperatura Precipitação Vento Pressão Humidade
    00:00 +18°C° 0 mm 2 m/s 756 mmHg 94%
    01:00 +18°C° 0 mm 2 m/s 756 mmHg 94%
    02:00 +18°C° 0 mm 2 m/s 755 mmHg 94%
    03:00 +18°C° 0 mm 2 m/s 755 mmHg 93%
    04:00 +18°C° 0 mm 2 m/s 755 mmHg 91%
    05:00 +18°C° 0 mm 2 m/s 756 mmHg 90%
    06:00 +18°C° 0 mm 2 m/s 756 mmHg 85%
    07:00 +19°C° 0 mm 3 m/s 756 mmHg 81%
    08:00 +20°C° 0 mm 3 m/s 756 mmHg 76%
    09:00 +21°C° 0 mm 3 m/s 756 mmHg 71%
    10:00 +22°C° 0 mm 4 m/s 756 mmHg 66%
    11:00 +23°C° 0 mm 4 m/s 756 mmHg 61%
    12:00 +23°C° 0 mm 4 m/s 756 mmHg 60%
    13:00 +23°C° 0 mm 5 m/s 756 mmHg 59%
    14:00 +25°C° 0 mm 5 m/s 755 mmHg 59%
    15:00 +23°C° 0 mm 5 m/s 756 mmHg 64%
    16:00 +21°C° 0 mm 5 m/s 756 mmHg 69%
    17:00 +20°C° 0 mm 5 m/s 756 mmHg 74%
    18:00 +19°C° 0 mm 4 m/s 756 mmHg 80%
    19:00 +18°C° 0 mm 4 m/s 757 mmHg 85%
    20:00 +17°C° 0 mm 4 m/s 757 mmHg 91%
    21:00 +17°C° 0 mm 4 m/s 757 mmHg 92%
    22:00 +17°C° 0 mm 4 m/s 757 mmHg 93%
    23:00 +15°C° 0 mm 4 m/s 757 mmHg 93%
    Mostrar mais